Terminal Aerodrome Forecast
Issued by NWS

Home | Current Version | Previous Version | Text Only | Print | Product List | Glossary On
Versions: 1 2 3 4 5 6 7 8 9 10 11 12 13 14 15 16 17 18 19 20 21 22 23 24 25 26 27 28 29 30 31 32 33 34 35 36 37
000
FTUS44 KHGX 031524 AAB
TAFCXO
TAF AMD
KCXO 031524Z 0315/0412 11005KT P6SM SCT006 SCT020
     FM031600 13006KT P6SM VCSH FEW020 SCT040
     FM040000 14004KT P6SM SCT250
      TEMPO 0409/0412 BKN006=

USA.gov is the U.S. government's official web portal to all federal, state and local government web resources and services.